Palma de Mallorca, Spain

9:43 PM CET on January 19, 2018 (GMT +0100)
Palma De Mallorca

Weather History for LEPA - November, 2012

Change the Weather History Date:

Friday, November 9, 2012

  Actual Average Record
Temperature  
Mean Temperature 66 °F -  
Max Temperature 72 °F 62 °F 73 °F (1997)
Min Temperature 59 °F 44 °F 39 °F (1999)
Growing Degree Days 16 (Base 50)    
Moisture  
Dew Point 61 °F    
Average Humidity 86    
Maximum Humidity 100    
Minimum Humidity 63    
Precipitation  
Precipitation 0.01 in 0.06 in - ()
Sea Level Pressure  
Sea Level Pressure 29.98 in    
Wind  
Wind Speed 4 mph ()    
Max Wind Speed 12 mph    
Max Gust Speed -    
Visibility 6.6 miles    
Events Rain    
Averages and records for this station are not official NWS values.
T = Trace of Precipitation, MM = Missing Value Source: Averaged Metar Reports

Daily Weather History Graph

Daily Weather History Graph

Search for Another Location

Airport or City:

Trip Planner

Search our weather history database for the weather conditions in past years. The results will help you decide how hot, cold, wet, or windy it might be!

Date:

Astronomy

Nov. 09, 2012 Rise Set
Actual Time 7:26 AM CET 5:38 PM CET
Civil Twilight 6:58 AM CET 6:07 PM CET
Nautical Twilight 6:26 AM CET 6:39 PM CET
Astronomical Twilight 5:54 AM CET 7:10 PM CET
Moon 2:10 AM CET (11/9) 2:42 PM CET (11/9)
Length of Visible Light 11h 08m
Length of Day
10h 12m
Waning Crescent, 25% of the Moon is Illuminated
Nov 9
Waning Crescent
Nov 13
New
Nov 20
First Quarter
Nov 28
Full
Dec 6
Last Quarter

Hourly Weather History & Observations

Time (CET) Temp. Dew Point Humidity Pressure Visibility Wind Dir Wind Speed Gust Speed Precip Events Conditions
12:00 AM 62.6 °F 59.0 °F 88% 30.09 in 6.2 mi East 4.6 mph - N/A   Mostly Cloudy
12:30 AM 62.6 °F 59.0 °F 88% 30.09 in 6.2 mi ENE 6.9 mph - N/A   Mostly Cloudy
1:00 AM 62 °F 56 °F 77% 30.09 in 7 mi ENE 3.5 mph - -   Mostly Cloudy
1:00 AM 62.6 °F 59.0 °F 88% 30.06 in 6.2 mi ENE 5.8 mph - N/A   Mostly Cloudy
1:30 AM 62.6 °F 59.0 °F 88% 30.06 in 6.2 mi East 3.5 mph - N/A   Mostly Cloudy
2:00 AM 62.6 °F 59.0 °F 88% 30.06 in 6.2 mi Variable 2.3 mph - N/A   Mostly Cloudy
2:30 AM 62.6 °F 59.0 °F 88% 30.06 in 6.2 mi East 2.3 mph - N/A   Mostly Cloudy
3:00 AM 60.8 °F 57.2 °F 88% 30.06 in 6.2 mi Variable 2.3 mph - N/A   Mostly Cloudy
3:30 AM 60.8 °F 57.2 °F 88% 30.06 in 6.2 mi North 1.2 mph - N/A   Mostly Cloudy
4:00 AM 60.8 °F 59.0 °F 94% 30.04 in 6.2 mi ENE 3.5 mph - N/A   Scattered Clouds
4:30 AM 60.8 °F 57.2 °F 88% 30.04 in 6.2 mi NE 2.3 mph - N/A   Partly Cloudy
5:00 AM 60.8 °F 59.0 °F 94% 30.04 in 6.2 mi Variable 2.3 mph - N/A   Partly Cloudy
5:30 AM 60.8 °F 57.2 °F 88% 30.04 in 6.2 mi North 2.3 mph - N/A   Partly Cloudy
6:00 AM 60.8 °F 59.0 °F 94% 30.01 in 6.2 mi NE 3.5 mph - N/A   Partly Cloudy
6:30 AM 60.8 °F 59.0 °F 94% 30.01 in 6.2 mi NNE 2.3 mph - N/A   Partly Cloudy
7:00 AM 60 °F 56 °F 82% 30.01 in 9 mi NNE 1.2 mph - -   Scattered Clouds
7:00 AM 60.8 °F 59.0 °F 94% 30.01 in 6.2 mi NE 6.9 mph - N/A   Partly Cloudy
7:30 AM 62.6 °F 59.0 °F 88% 30.01 in 6.2 mi NE 4.6 mph - N/A   Partly Cloudy
8:00 AM 62.6 °F 59.0 °F 88% 30.01 in 6.2 mi NE 6.9 mph - N/A   Partly Cloudy
8:30 AM 62.6 °F 59.0 °F 88% 30.01 in 6.2 mi ENE 11.5 mph - N/A   Partly Cloudy
9:00 AM 66.2 °F 60.8 °F 83% 30.01 in 6.2 mi ENE 10.4 mph - N/A   Partly Cloudy
9:30 AM 66.2 °F 60.8 °F 83% 30.01 in 6.2 mi ENE 9.2 mph - N/A   Partly Cloudy
10:30 AM 68.0 °F 60.8 °F 78% 29.98 in 6.2 mi ENE 9.2 mph - N/A   Partly Cloudy
11:00 AM 68.0 °F 62.6 °F 83% 30.01 in 6.2 mi ENE 8.1 mph - N/A   Scattered Clouds
11:30 AM 69.8 °F 62.6 °F 78% 30.01 in 6.2 mi NE 8.1 mph - N/A   Scattered Clouds
12:00 PM 69.8 °F 62.6 °F 78% 30.01 in 6.2 mi NE 8.1 mph - N/A   Scattered Clouds
12:30 PM 69.8 °F 62.6 °F 78% 29.98 in 6.2 mi NE 6.9 mph - N/A   Mostly Cloudy
1:00 PM 70 °F 60 °F 63% 29.97 in 19 mi ENE 8.1 mph - -   Partly Cloudy
1:00 PM 69.8 °F 64.4 °F 83% 29.95 in 6.2 mi ENE 10.4 mph - N/A   Scattered Clouds
1:30 PM 71.6 °F 62.6 °F 73% 29.95 in 6.2 mi NE 8.1 mph - N/A   Scattered Clouds
2:00 PM 71.6 °F 64.4 °F 78% 29.95 in 6.2 mi NNE 9.2 mph - N/A   Partly Cloudy
2:30 PM 73.4 °F 64.4 °F 73% 29.92 in 6.2 mi NE 8.1 mph - N/A   Partly Cloudy
3:30 PM 71.6 °F 64.4 °F 78% 29.92 in 6.2 mi NE 9.2 mph - N/A   Scattered Clouds
4:00 PM 71.6 °F 64.4 °F 78% 29.89 in 6.2 mi NE 9.2 mph - N/A   Scattered Clouds
4:30 PM 71.6 °F 64.4 °F 78% 29.92 in 6.2 mi ENE 3.5 mph - N/A   Scattered Clouds
5:00 PM 69.8 °F 64.4 °F 83% 29.92 in 6.2 mi SSW 5.8 mph - N/A   Scattered Clouds
5:30 PM 68.0 °F 64.4 °F 88% 29.92 in 6.2 mi SW 3.5 mph - N/A   Scattered Clouds
6:00 PM 68.0 °F 62.6 °F 83% 29.92 in 6.2 mi SW 5.8 mph - N/A   Scattered Clouds
6:30 PM 66.2 °F 62.6 °F 88% 29.92 in 6.2 mi Calm Calm - N/A   Scattered Clouds
7:00 PM 66 °F 60 °F 77% 29.94 in 12 mi Calm Calm - -   Partly Cloudy
7:00 PM 66.2 °F 62.6 °F 88% 29.92 in 6.2 mi Calm Calm - N/A   Scattered Clouds
7:30 PM 66.2 °F 62.6 °F 88% 29.92 in 6.2 mi Calm Calm - N/A   Scattered Clouds
8:00 PM 64.4 °F 62.6 °F 94% 29.92 in 6.2 mi Variable 2.3 mph - N/A   Scattered Clouds
8:30 PM 64.4 °F 62.6 °F 94% 29.92 in 6.2 mi Calm Calm - N/A   Scattered Clouds
9:00 PM 64.4 °F 62.6 °F 94% 29.92 in 6.2 mi Calm Calm - N/A   Scattered Clouds
9:30 PM 64.4 °F 62.6 °F 94% 29.92 in 6.2 mi Variable 1.2 mph - N/A   Scattered Clouds
10:00 PM 64.4 °F 62.6 °F 94% 29.95 in 6.2 mi SW 1.2 mph - N/A   Scattered Clouds
10:30 PM 64.4 °F 62.6 °F 94% 29.92 in 6.2 mi Variable 2.3 mph - N/A   Scattered Clouds
11:00 PM 64.4 °F 62.6 °F 94% 29.92 in 6.2 mi Variable 1.2 mph - N/A   Scattered Clouds
11:30 PM 62.6 °F 62.6 °F 100% 29.89 in 6.2 mi Variable 1.2 mph - N/A Rain Light Rain